Starlink 31201

operational
NORAD ID: 58870 Int'l Des: 2024-019 Owner: SPXS Country: US Constellation: starlink
LEOCIRCULAR

Über Starlink 31201

Beschreibung wird geladen...

Live-Position

3D-Globus wird geladen...

Nächste Überflüge

Höhenverlauf

Altitude vs Time

uPlot chart will show altitude changes over time

Zweizeiliger Elementsatz

1 58870U 24019T 25354.02628441 .00000870 00000-0 41145-4 0 9994
2 58870 43.0035 338.4165 0000916 221.3417 138.7365 15.27575057106881
Epoch: 20. Dez. 2025 • Age: 27 hours

Aktueller Status

Höhe 487.3 km
Geschwindigkeit 7.62 km/s
Subsatellitenpunkt -19.09°S, 172.79°E
Startdatum 29. Jan. 2024
Alter 1.8 years
Typ internet

Technische Details

Klassifizierung Payload
Masse 730.00 kg
Trockenmasse 700.00 kg
Gesamtmasse 730.00 kg
Länge 0.30 m
Durchmesser 4.10 m
Spannweite 29.00 m
Form Box + pan
Hersteller SPXS
Bus-Typ Starlink V2M
Phasenstatus In Orbit
Besitzer/Staat SPXS/US

Große Konstellationen

Loading constellations...